When you browse on this site, cookies collect data to enhance your experience and personalize the content and advertising you see.
Visit our Privacy Policy to learn more. By continuing to use the site, you agree to this use of cookies and data.
  • In Latvia
  • List of Countries
  • For 7 days
  • Water Temperature
  • Weather Map
  • Weather Widgets
  • user-avatar
    Login

    Hourly Weather Yulara

    Today, 21 January, Tuesday

    Time Temperature Precipitation Wind Pressure Humidity
    00:00 +30°C° 0 mm 6 mps 713 mmHg 26%
    01:00 +29°C° 0 mm 6 mps 713 mmHg 27%
    02:00 +28°C° 0 mm 7 mps 713 mmHg 29%
    03:00 +27°C° 0 mm 6 mps 713 mmHg 30%
    04:00 +27°C° 0 mm 6 mps 713 mmHg 30%
    05:00 +26°C° 0 mm 6 mps 713 mmHg 31%
    06:00 +26°C° 0 mm 7 mps 713 mmHg 31%
    07:00 +27°C° 0.1 mm 7 mps 714 mmHg 31%
    08:00 +29°C° 0.1 mm 6 mps 714 mmHg 30%
    09:00 +33°C° 0 mm 5 mps 714 mmHg 29%
    10:00 +35°C° 0 mm 6 mps 714 mmHg 27%
    11:00 +38°C° 0 mm 6 mps 714 mmHg 25%
    12:00 +40°C° 0 mm 7 mps 713 mmHg 24%
    13:00 +37°C° 0.6 mm 9 mps 712 mmHg 33%
    14:00 +34°C° 0.6 mm 10 mps 711 mmHg 43%
    15:00 +33°C° 0 mm 10 mps 711 mmHg 45%
    16:00 +34°C° 0.3 mm 9 mps 711 mmHg 42%
    17:00 +34°C° 0.3 mm 7 mps 711 mmHg 38%
    18:00 +35°C° 0.3 mm 6 mps 712 mmHg 35%
    19:00 +34°C° 0.1 mm 4 mps 712 mmHg 38%
    20:00 +33°C° 0.1 mm 3 mps 712 mmHg 42%
    21:00 +31°C° 0 mm 3 mps 712 mmHg 43%
    22:00 +32°C° 0 mm 4 mps 712 mmHg 43%
    23:00 +32°C° 0 mm 5 mps 712 mmHg 44%

    Tomorrow, 22 January, Wednesday

    Time Temperature Precipitation Wind Pressure Humidity
    00:00 +32°C° 0 mm 6 mps 712 mmHg 45%
    01:00 +30°C° 0 mm 6 mps 712 mmHg 47%
    02:00 +30°C° 0 mm 6 mps 712 mmHg 50%
    03:00 +29°C° 0 mm 6 mps 711 mmHg 52%
    04:00 +29°C° 0 mm 5 mps 711 mmHg 47%
    05:00 +28°C° 0 mm 4 mps 712 mmHg 42%
    06:00 +27°C° 0 mm 3 mps 712 mmHg 36%
    07:00 +30°C° 0 mm 2 mps 712 mmHg 29%
    08:00 +32°C° 0 mm 2 mps 713 mmHg 23%
    09:00 +34°C° 0 mm 1 mps 713 mmHg 16%
    10:00 +37°C° 0 mm 2 mps 713 mmHg 14%
    11:00 +38°C° 0 mm 4 mps 712 mmHg 12%
    12:00 +41°C° 0 mm 5 mps 712 mmHg 11%
    13:00 +42°C° 0 mm 4 mps 711 mmHg 10%
    14:00 +42°C° 0 mm 4 mps 711 mmHg 10%
    15:00 +43°C° 0 mm 4 mps 710 mmHg 9%
    16:00 +43°C° 0 mm 4 mps 710 mmHg 10%
    17:00 +43°C° 0 mm 3 mps 710 mmHg 10%
    18:00 +42°C° 0 mm 3 mps 710 mmHg 11%
    19:00 +40°C° 0 mm 2 mps 710 mmHg 13%
    20:00 +38°C° 0 mm 2 mps 710 mmHg 15%
    21:00 +36°C° 0 mm 2 mps 711 mmHg 18%
    22:00 +35°C° 0 mm 3 mps 711 mmHg 21%
    23:00 +34°C° 0 mm 5 mps 711 mmHg 24%

    Day after tomorrow, 23 January, Thursday

    Time Temperature Precipitation Wind Pressure Humidity
    00:00 +33°C° 0 mm 6 mps 711 mmHg 27%
    01:00 +32°C° 0 mm 6 mps 711 mmHg 29%
    02:00 +30°C° 0 mm 6 mps 711 mmHg 31%
    03:00 +29°C° 0 mm 6 mps 711 mmHg 33%
    04:00 +28°C° 0 mm 6 mps 712 mmHg 32%
    05:00 +27°C° 0 mm 6 mps 712 mmHg 31%
    06:00 +26°C° 0 mm 5 mps 713 mmHg 30%
    07:00 +27°C° 0 mm 6 mps 714 mmHg 30%
    08:00 +28°C° 0 mm 6 mps 714 mmHg 29%
    09:00 +29°C° 0 mm 7 mps 714 mmHg 29%
    10:00 +32°C° 0 mm 6 mps 714 mmHg 27%
    11:00 +33°C° 0 mm 5 mps 714 mmHg 25%
    12:00 +35°C° 0 mm 4 mps 714 mmHg 22%
    13:00 +36°C° 0 mm 4 mps 713 mmHg 21%
    14:00 +37°C° 0 mm 3 mps 713 mmHg 20%
    15:00 +38°C° 0 mm 2 mps 712 mmHg 19%
    16:00 +38°C° 0 mm 3 mps 712 mmHg 19%
    17:00 +38°C° 0 mm 4 mps 712 mmHg 19%
    18:00 +39°C° 0 mm 5 mps 712 mmHg 18%
    19:00 +36°C° 0 mm 6 mps 713 mmHg 20%
    20:00 +34°C° 0 mm 7 mps 713 mmHg 21%
    21:00 +33°C° 0 mm 8 mps 714 mmHg 22%
    22:00 +32°C° 0 mm 8 mps 714 mmHg 25%
    23:00 +29°C° 0 mm 8 mps 714 mmHg 27%

    24 January, Friday

    Time Temperature Precipitation Wind Pressure Humidity
    00:00 +28°C° 0 mm 8 mps 715 mmHg 30%
    01:00 +27°C° 0 mm 8 mps 714 mmHg 33%
    02:00 +26°C° 0 mm 8 mps 714 mmHg 37%
    03:00 +24°C° 0 mm 7 mps 714 mmHg 40%
    04:00 +24°C° 0 mm 7 mps 715 mmHg 42%
    05:00 +23°C° 0 mm 6 mps 715 mmHg 44%
    06:00 +22°C° 0 mm 5 mps 716 mmHg 46%
    07:00 +24°C° 0 mm 6 mps 716 mmHg 42%
    08:00 +26°C° 0 mm 7 mps 717 mmHg 38%
    09:00 +28°C° 0 mm 8 mps 717 mmHg 34%
    10:00 +30°C° 0 mm 7 mps 717 mmHg 30%
    11:00 +33°C° 0 mm 7 mps 717 mmHg 27%
    12:00 +34°C° 0 mm 6 mps 717 mmHg 23%
    13:00 +35°C° 0 mm 5 mps 716 mmHg 22%
    14:00 +36°C° 0 mm 5 mps 715 mmHg 21%
    15:00 +37°C° 0 mm 4 mps 715 mmHg 20%
    16:00 +37°C° 0 mm 3 mps 715 mmHg 20%
    17:00 +37°C° 0 mm 3 mps 715 mmHg 19%
    18:00 +37°C° 0 mm 2 mps 715 mmHg 19%
    19:00 +36°C° 0 mm 4 mps 715 mmHg 21%
    20:00 +35°C° 0 mm 5 mps 716 mmHg 22%
    21:00 +33°C° 0 mm 6 mps 716 mmHg 24%
    22:00 +32°C° 0 mm 7 mps 716 mmHg 23%
    23:00 +31°C° 0 mm 8 mps 716 mmHg 23%

    25 January, Saturday

    Time Temperature Precipitation Wind Pressure Humidity
    00:00 +28°C° 0 mm 9 mps 716 mmHg 22%
    01:00 +27°C° 0 mm 8 mps 716 mmHg 22%
    02:00 +27°C° 0 mm 7 mps 716 mmHg 22%
    03:00 +26°C° 0 mm 6 mps 716 mmHg 21%
    04:00 +25°C° 0 mm 5 mps 716 mmHg 23%
    05:00 +25°C° 0 mm 5 mps 716 mmHg 24%
    06:00 +23°C° 0 mm 5 mps 716 mmHg 26%
    07:00 +26°C° 0 mm 5 mps 717 mmHg 23%
    08:00 +28°C° 0 mm 6 mps 717 mmHg 21%
    09:00 +30°C° 0 mm 7 mps 717 mmHg 19%
    10:00 +32°C° 0 mm 6 mps 717 mmHg 18%
    11:00 +34°C° 0 mm 5 mps 717 mmHg 17%
    12:00 +35°C° 0 mm 4 mps 717 mmHg 17%
    13:00 +36°C° 0 mm 3 mps 716 mmHg 16%
    14:00 +37°C° 0 mm 3 mps 715 mmHg 16%
    15:00 +38°C° 0 mm 2 mps 715 mmHg 16%
    16:00 +38°C° 0 mm 2 mps 715 mmHg 15%
    17:00 +38°C° 0 mm 2 mps 715 mmHg 15%
    18:00 +38°C° 0 mm 2 mps 715 mmHg 15%
    19:00 +36°C° 0 mm 3 mps 715 mmHg 16%
    20:00 +35°C° 0 mm 4 mps 715 mmHg 18%
    21:00 +33°C° 0 mm 4 mps 715 mmHg 19%
    22:00 +32°C° 0 mm 5 mps 715 mmHg 20%
    23:00 +30°C° 0 mm 6 mps 715 mmHg 20%

    26 January, Sunday

    Time Temperature Precipitation Wind Pressure Humidity
    00:00 +29°C° 0 mm 6 mps 715 mmHg 20%
    01:00 +29°C° 0 mm 6 mps 715 mmHg 22%
    02:00 +28°C° 0 mm 5 mps 715 mmHg 24%
    03:00 +27°C° 0 mm 4 mps 715 mmHg 25%
    04:00 +26°C° 0 mm 4 mps 715 mmHg 26%
    05:00 +25°C° 0 mm 4 mps 715 mmHg 27%
    06:00 +25°C° 0 mm 3 mps 716 mmHg 28%
    07:00 +27°C° 0 mm 4 mps 716 mmHg 25%
    08:00 +30°C° 0 mm 5 mps 716 mmHg 21%
    09:00 +33°C° 0 mm 6 mps 717 mmHg 17%
    10:00 +35°C° 0 mm 5 mps 716 mmHg 17%
    11:00 +36°C° 0 mm 4 mps 716 mmHg 16%
    12:00 +37°C° 0 mm 3 mps 715 mmHg 15%
    13:00 +38°C° 0 mm 3 mps 715 mmHg 14%
    14:00 +39°C° 0 mm 3 mps 714 mmHg 13%
    15:00 +40°C° 0 mm 3 mps 713 mmHg 13%
    16:00 +40°C° 0 mm 3 mps 713 mmHg 13%
    17:00 +39°C° 0 mm 3 mps 713 mmHg 13%
    18:00 +39°C° 0 mm 3 mps 713 mmHg 12%
    19:00 +38°C° 0 mm 3 mps 714 mmHg 14%
    20:00 +36°C° 0 mm 3 mps 714 mmHg 16%
    21:00 +34°C° 0 mm 3 mps 714 mmHg 18%
    22:00 +34°C° 0 mm 4 mps 714 mmHg 18%
    23:00 +33°C° 0 mm 5 mps 714 mmHg 19%
    Show more